CAPE
2 3 2 1 1 1 0 0 1 0 0 0 0 0 0 0 0 0 0 0 0 0 0 0 0 0 0 0 0 0 0 0 0 0 0 0 0 0 0 0 0 0 0 0 0
0 0 1 0 1 0 0 0 0 0 0 0 0 0 0 0 0 0 0 0 0 0 0 0 0 0 0 0 0 0 0 0 0 0 0 0 0 0 0 0 0 0 0 0 0
0 0 0 0 1 0 0 0 0 0 0 0 0 0 0 0 0 0 0 0 0 0 0 0 0 0 0 0 0 0 0 0 0 0 0 0 0 0 0 0 0 0 0 0 0
0 0 0 0 0 0 0 0 0 0 0 0 0 0 0 0 0 0 0 0 0 0 0 0 0 0 0 0 0 0 0 0 0 0 0 0 0 0 0 0 0 0 0 0 0
0 0 0 0 0 0 0 0 0 0 0 0 0 0 0 0 0 0 0 0 0 0 0 0 0 0 0 0 0 0 0 0 0 0 0 0 0 0 0 0 0 0 0 0 0
0 0 0 0 0 0 0 0 0 0 0 0 0 0 0 0 0 0 0 0 0 0 0 0 0 0 0 0 0 0 0 0 0 0 0 0 0 0 0 0 0 0 0 0 0
0 0 0 0 0 0 0 0 0 0 0 0 0 0 0 0 0 0 0 0 0 0 0 0 0 0 0 0 0 0 0 0 0 0 0 0 0 0 0 0 0 0 0 0 0
0 0 0 0 0 0 0 0 0 0 0 0 0 0 0 0 0 0 0 0 0 0 0 0 0 0 0 0 0 0 0 0 0 0 0 0 0 0 0 0 0 0 0 0 0
0 0 0 0 0 0 0 0 0 0 0 0 0 0 0 0 0 0 0 0 0 0 0 0 0 0 0 0 0 0 0 0 0 0 0 0 0 0 0 0 0 0 0 0 0
0 0 0 0 0 0 0 0 0 0 0 0 0 0 0 0 0 0 0 0 0 0 0 0 0 0 0 0 0 0 0 0 0 0 0 0 0 0 0 0 0 0 0 0 0
0 0 0 0 0 0 0 0 0 0 0 0 0 0 0 0 0 0 0 0 0 0 0 0 0 0 0 0 0 0 0 0 0 0 0 0 0 0 0 0 0 0 0 0 0
0 0 0 0 0 0 0 0 0 0 0 0 0 0 0 0 0 0 0 0 0 0 0 0 0 0 0 0 0 0 0 0 0 0 0 0 0 0 0 0 0 0 0 0 0
0 0 0 0 0 0 0 0 0 0 0 0 0 0 0 0 0 0 0 0 0 0 0 0 0 0 0 0 0 0 0 0 0 0 0 0 0 0 0 0 0 0 0 0 0
0 0 0 0 0 0 0 0 0 0 0 0 0 0 0 0 0 0 0 0 0 0 0 0 0 0 0 0 0 0 0 0 0 0 0 0 0 0 0 0 0 0 0 0 0
0 0 0 0 0 0 0 0 0 0 0 0 0 0 0 0 0 0 0 0 0 0 0 0 0 0 0 0 0 0 0 0 0 0 0 0 0 0 0 0 0 0 0 0 0
0 0 0 0 0 0 0 0 0 0 0 0 0 0 0 0 0 0 0 0 0 0 0 0 0 0 0 0 0 0 0 0 0 0 0 0 0 0 0 0 0 0 0 0 0
0 0 0 0 0 0 0 0 0 0 0 0 0 0 0 0 0 0 0 0 0 0 0 0 0 0 0 0 0 0 0 0 0 0 0 0 0 0 0 0 0 0 0 0 0
0 0 0 0 0 0 0 0 0 0 0 0 0 0 0 0 0 0 0 0 0 0 0 0 0 0 0 0 0 0 0 0 0 0 0 0 0 0 0 0 0 0 0 0 0
0 0 0 0 0 0 0 0 0 0 0 0 0 0 0 0 0 0 0 0 0 0 0 0 0 0 0 0 0 0 0 0 0 0 0 0 0 0 0 0 0 0 0 0 0
0 0 0 0 0 0 0 0 0 0 0 0 0 0 0 0 0 0 0 0 0 0 0 0 0 0 0 0 0 0 0 0 0 0 0 0 0 0 0 0 0 0 0 0 0
0 0 0 0 0 0 0 0 0 0 0 0 0 0 0 0 0 0 0 0 0 0 0 0 0 0 0 0 0 0 0 0 0 0 0 0 0 0 0 0 0 0 0 0 0
0 0 0 0 0 0 0 0 0 0 0 0 0 0 0 0 0 0 0 0 0 0 0 0 0 0 0 0 0 0 0 0 0 0 0 0 0 0 0 0 0 0 0 0 0
0 0 0 0 0 0 0 0 0 0 0 0 0 0 0 0 0 0 0 0 0 0 0 0 0 0 0 0 0 0 0 0 0 0 0 0 0 0 0 0 0 0 0 0 0
0 0 0 0 0 0 0 0 0 0 0 0 0 0 0 0 0 0 0 0 0 0 0 0 0 0 0 0 0 0 0 0 0 0 0 0 0 0 0 0 0 0 0 0 0
0 0 0 0 0 0 0 0 0 0 0 0 0 0 0 0 0 0 0 0 0 0 0 0 0 0 0 0 0 0 0 0 0 0 0 0 0 0 0 0 0 0 0 0 0
0 0 0 0 0 0 0 0 0 0 0 0 0 0 0 0 0 0 0 0 0 0 0 0 0 0 0 0 0 0 0 0 0 0 0 0 0 0 0 0 0 0 0 0 0
0 0 0 0 0 0 0 0 0 0 0 0 0 0 0 0 0 0 0 0 0 0 0 0 0 0 0 0 0 0 0 0 0 0 0 0 0 0 0 0 0 0 0 0 0
CIN
0 0 0 -1 -1 0 0 0 0 0 0 0 0 0 0 0 0 0 0 0 0 0 0 0 0 0 0 0 0 0 0 0 0 0 0 0 0 0 0 0 0 0 0 0 0
0 0 -1 0 -1 0 0 0 0 0 0 0 0 0 0 0 0 0 0 0 0 0 0 0 0 0 0 0 0 0 0 0 0 0 0 0 0 0 0 0 0 0 0 0 0
0 0 0 0 0 0 0 0 0 0 0 0 0 0 0 0 0 0 0 0 0 0 0 0 0 0 0 0 0 0 0 0 0 0 0 0 0 0 0 0 0 0 0 0 0
0 0 0 0 0 0 0 0 0 0 0 0 0 0 0 0 0 0 0 0 0 0 0 0 0 0 0 0 0 0 0 0 0 0 0 0 0 0 0 0 0 0 0 0 0
0 0 0 0 0 0 0 0 0 0 0 0 0 0 0 0 0 0 0 0 0 0 0 0 0 0 0 0 0 0 0 0 0 0 0 0 0 0 0 0 0 0 0 0 0
0 0 0 0 0 0 0 0 0 0 0 0 0 0 0 0 0 0 0 0 0 0 0 0 0 0 0 0 0 0 0 0 0 0 0 0 0 0 0 0 0 0 0 0 0
0 0 0 0 0 0 0 0 0 0 0 0 0 0 0 0 0 0 0 0 0 0 0 0 0 0 0 0 0 0 0 0 0 0 0 0 0 0 0 0 0 0 0 0 0
0 0 0 0 0 0 0 0 0 0 0 0 0 0 0 0 0 0 0 0 0 0 0 0 0 0 0 0 0 0 0 0 0 0 0 0 0 0 0 0 0 0 0 0 0
0 0 0 0 0 0 0 0 0 0 0 0 0 0 0 0 0 0 0 0 0 0 0 0 0 0 0 0 0 0 0 0 0 0 0 0 0 0 0 0 0 0 0 0 0
0 0 0 0 0 0 0 0 0 0 0 0 0 0 0 0 0 0 0 0 0 0 0 0 0 0 0 0 0 0 0 0 0 0 0 0 0 0 0 0 0 0 0 0 0
0 0 0 0 0 0 0 0 0 0 0 0 0 0 0 0 0 0 0 0 0 0 0 0 0 0 0 0 0 0 0 0 0 0 0 0 0 0 0 0 0 0 0 0 0
0 0 0 0 0 0 0 0 0 0 0 0 0 0 0 0 0 0 0 0 0 0 0 0 0 0 0 0 0 0 0 0 0 0 0 0 0 0 0 0 0 0 0 0 0
0 0 0 0 0 0 0 0 0 0 0 0 0 0 0 0 0 0 0 0 0 0 0 0 0 0 0 0 0 0 0 0 0 0 0 0 0 0 0 0 0 0 0 0 0
0 0 0 0 0 0 0 0 0 0 0 0 0 0 0 0 0 0 0 0 0 0 0 0 0 0 0 0 0 0 0 0 0 0 0 0 0 0 0 0 0 0 0 0 0
0 0 0 0 0 0 0 0 0 0 0 0 0 0 0 0 0 0 0 0 0 0 0 0 0 0 0 0 0 0 0 0 0 0 0 0 0 0 0 0 0 0 0 0 0
0 0 0 0 0 0 0 0 0 0 0 0 0 0 0 0 0 0 0 0 0 0 0 0 0 0 0 0 0 0 0 0 0 0 0 0 0 0 0 0 0 0 0 0 0
0 0 0 0 0 0 0 0 0 0 0 0 0 0 0 0 0 0 0 0 0 0 0 0 0 0 0 0 0 0 0 0 0 0 0 0 0 0 0 0 0 0 0 0 0
0 0 0 0 0 0 0 0 0 0 0 0 0 0 0 0 0 0 0 0 0 0 0 0 0 0 0 0 0 0 0 0 0 0 0 0 0 0 0 0 0 0 0 0 0
0 0 0 0 0 0 0 0 0 0 0 0 0 0 0 0 0 0 0 0 0 0 0 0 0 0 0 0 0 0 0 0 0 0 0 0 0 0 0 0 0 0 0 0 0
0 0 0 0 0 0 0 0 0 0 0 0 0 0 0 0 0 0 0 0 0 0 0 0 0 0 0 0 0 0 0 0 0 0 0 0 0 0 0 0 0 0 0 0 0
0 0 0 0 0 0 0 0 0 0 0 0 0 0 0 0 0 0 0 0 0 0 0 0 0 0 0 0 0 0 0 0 0 0 0 0 0 0 0 0 0 0 0 0 0
0 0 0 0 0 0 0 0 0 0 0 0 0 0 0 0 0 0 0 0 0 0 0 0 0 0 0 0 0 0 0 0 0 0 0 0 0 0 0 0 0 0 0 0 0
0 0 0 0 0 0 0 0 0 0 0 0 0 0 0 0 0 0 0 0 0 0 0 0 0 0 0 0 0 0 0 0 0 0 0 0 0 0 0 0 0 0 0 0 0
0 0 0 0 0 0 0 0 0 0 0 0 0 0 0 0 0 0 0 0 0 0 0 0 0 0 0 0 0 0 0 0 0 0 0 0 0 0 0 0 0 0 0 0 0
0 0 0 0 0 0 0 0 0 0 0 0 0 0 0 0 0 0 0 0 0 0 0 0 0 0 0 0 0 0 0 0 0 0 0 0 0 0 0 0 0 0 0 0 0
0 0 0 0 0 0 0 0 0 0 0 0 0 0 0 0 0 0 0 0 0 0 0 0 0 0 0 0 0 0 0 0 0 0 0 0 0 0 0 0 0 0 0 0 0
0 0 0 0 0 0 0 0 0 0 0 0 0 0 0 0 0 0 0 0 0 0 0 0 0 0 0 0 0 0 0 0 0 0 0 0 0 0 0 0 0 0 0 0 0
Wind_Speed
25 26 26 25 25 25 25 24 24 24 23 22 21 21 19 18 17 16 17 20 21 23 21 17 13 13 12 12 13 13 19 20 20 19 19 18 18 17 17 16 17 17 17 19 4
26 27 27 26 26 26 26 25 25 25 24 22 21 20 19 17 16 17 19 22 22 21 17 14 12 12 13 14 15 15 19 20 19 18 19 19 18 18 18 18 19 19 18 13 3
27 28 28 28 27 27 27 27 27 26 25 21 20 20 18 16 15 18 22 23 22 19 15 14 13 13 13 13 14 15 20 18 18 18 18 19 19 20 20 22 21 21 18 10 7
27 28 29 29 28 28 29 28 28 27 24 19 19 19 18 16 18 19 23 22 20 16 14 14 13 12 13 13 14 16 17 18 18 19 20 21 22 22 21 22 22 22 18 11 9
28 29 29 29 29 29 29 29 28 25 20 19 19 19 17 17 17 21 23 21 17 15 15 14 12 13 13 14 14 15 16 18 19 20 21 23 24 26 28 26 23 22 17 13 13
28 29 30 29 29 30 29 28 26 22 19 18 19 18 17 18 18 21 22 18 18 16 15 15 13 13 13 15 15 16 16 18 19 20 21 24 23 23 22 22 21 20 17 13 12
28 29 30 30 30 30 28 27 24 20 19 18 18 16 16 16 18 21 20 18 18 16 14 15 14 14 13 14 15 15 17 18 19 20 21 22 24 22 22 23 22 18 18 17 13
28 29 29 29 29 28 28 24 20 19 17 16 16 16 16 17 18 20 20 16 18 16 14 14 14 14 15 13 16 17 17 19 18 21 20 21 24 20 19 20 22 22 21 19 16
28 27 27 27 27 27 25 20 18 17 17 17 16 16 16 18 17 21 19 17 17 15 15 14 15 15 15 16 18 19 20 20 20 20 22 21 24 21 21 24 29 29 28 25 23
27 26 27 26 26 26 23 17 18 16 18 16 17 16 17 19 19 20 18 17 16 15 15 16 16 16 17 18 20 20 22 22 23 24 25 29 37 37 31 32 35 35 34 32 28
26 25 26 25 25 25 20 18 18 18 18 16 18 16 18 20 18 20 19 16 16 16 16 18 17 18 19 19 19 20 23 26 24 25 30 29 36 41 36 32 39 38 35 33 32
25 25 25 25 24 22 18 17 16 14 16 17 16 16 17 17 17 21 19 15 16 16 17 17 18 19 18 20 20 22 25 27 28 26 32 34 44 42 33 26 23 26 28 29 28
23 24 24 24 18 18 17 15 16 15 15 16 16 16 17 17 17 20 19 16 15 16 17 16 17 19 18 21 23 23 25 27 29 33 26 35 34 27 26 26 24 25 27 28 25
22 22 23 19 17 17 17 17 16 15 16 17 17 17 17 15 17 19 19 16 17 15 16 17 19 18 19 21 23 26 23 25 28 31 32 30 35 33 28 29 26 24 24 25 21
20 19 18 15 14 17 17 17 15 14 18 17 15 16 17 16 16 20 19 17 16 16 15 17 18 19 20 20 21 22 22 24 25 27 29 28 28 28 27 27 26 25 24 23 21
18 16 13 16 15 16 16 14 14 16 18 15 16 16 15 19 17 17 17 18 15 16 18 16 16 18 18 18 20 20 22 25 23 24 26 24 26 27 27 25 26 26 24 22 21
13 14 14 15 13 16 14 14 15 14 17 16 15 16 16 18 16 18 17 18 16 16 17 17 17 17 18 18 20 22 25 26 24 24 24 22 27 24 24 23 27 28 27 22 20
11 12 14 14 15 14 14 13 16 15 15 14 14 15 15 17 15 16 15 16 17 15 16 16 16 18 20 19 21 23 21 22 25 25 30 25 22 22 24 25 24 22 24 22 20
10 15 15 19 16 14 12 13 14 13 12 10 13 14 14 14 14 14 15 15 14 15 16 17 16 17 19 19 20 20 22 19 22 24 27 23 22 25 23 25 30 25 25 23 18
13 15 15 19 15 14 13 14 13 13 12 12 12 14 12 12 14 14 14 14 14 15 16 15 19 18 18 17 20 19 17 23 23 27 30 28 27 22 27 29 31 30 31 30 27
14 14 15 17 15 15 15 14 13 12 13 13 12 14 14 13 13 15 14 14 14 15 17 16 19 19 19 18 19 20 20 20 21 21 29 36 27 18 22 30 33 35 34 33 31
14 14 18 15 13 14 14 12 12 11 14 15 14 15 14 12 15 16 14 14 14 13 17 19 20 23 22 20 18 18 19 17 23 27 25 32 39 20 20 24 28 38 41 40 37
15 16 18 15 14 14 15 13 13 11 12 15 16 16 14 14 17 14 14 16 14 17 16 16 22 28 27 23 21 20 18 18 22 26 29 36 33 18 25 32 42 47 48 49 50
15 16 17 16 16 14 13 14 14 13 14 16 16 16 16 18 17 18 15 16 17 18 18 20 21 23 29 30 26 27 24 21 24 33 36 31 37 35 38 44 49 51 44 46 46
17 17 16 17 17 15 15 13 13 15 16 16 17 17 18 21 20 18 17 18 19 21 20 23 29 26 28 30 31 33 32 28 29 31 35 36 39 42 44 48 48 46 48 50 48
16 15 17 16 16 16 17 17 15 16 16 17 19 18 18 21 20 21 17 19 22 21 21 24 31 32 39 34 34 38 34 31 30 32 36 38 43 41 40 40 46 49 50 48 45
16 15 16 18 18 19 20 19 18 15 19 20 18 19 21 22 20 22 21 23 24 24 24 26 29 34 41 35 41 47 34 29 31 29 33 41 39 39 46 48 48 52 49 44 47
Wind_Direction
340 334 329 323 320 321 319 317 316 316 316 316 315 318 316 319 329 331 326 317 310 298 303 315 333 330 328 322 320 316 298 296 298 297 298 300 292 299 301 298 299 303 304 306 327
336 329 325 322 316 314 314 313 314 314 315 318 321 319 323 321 333 337 321 299 298 302 324 333 335 333 324 319 315 303 297 297 301 302 300 299 296 296 295 295 295 298 304 312 298
332 329 325 320 315 312 311 312 312 312 312 318 324 320 324 333 335 328 306 304 302 315 336 334 333 331 325 325 318 311 298 302 305 307 307 300 296 297 294 290 294 297 299 302 283
330 330 325 319 315 311 308 308 310 311 317 326 324 321 325 333 318 326 308 309 313 332 335 335 332 331 327 321 322 314 310 306 306 305 304 299 299 296 294 296 300 298 298 291 276
327 325 324 320 316 311 309 309 312 318 326 327 323 321 326 324 325 320 311 319 329 337 336 336 337 334 328 327 323 318 315 309 308 306 304 300 295 294 291 294 298 300 300 289 281
323 322 322 320 317 314 310 309 314 323 329 325 320 321 320 314 321 317 315 329 332 334 334 334 338 341 339 327 321 323 317 312 311 310 308 302 301 302 304 306 300 299 298 294 285
325 321 318 318 315 312 309 306 315 324 329 323 323 327 327 324 321 318 322 329 330 336 338 340 340 336 341 334 329 328 318 316 314 312 311 312 300 301 303 305 305 304 301 297 291
324 316 314 311 308 308 303 304 320 326 332 333 330 327 320 325 327 323 321 329 330 338 347 345 347 349 335 344 330 324 322 316 318 314 315 314 302 312 313 312 307 306 304 301 295
315 312 309 305 307 309 309 319 326 333 332 332 331 327 319 325 331 323 329 325 326 337 342 345 341 339 335 327 319 320 313 314 314 320 313 315 306 313 315 309 301 300 298 299 296
308 316 304 297 306 311 317 334 336 335 325 338 334 325 322 316 321 321 329 332 333 337 333 330 329 327 326 321 312 314 311 312 309 313 312 304 289 292 303 301 296 296 294 293 294
309 308 294 300 308 315 332 330 322 318 331 327 320 322 321 315 335 328 331 334 333 332 324 324 322 317 319 321 319 316 311 307 311 316 310 309 298 286 304 306 295 295 298 297 292
303 302 303 304 312 330 338 335 337 334 332 334 334 332 335 329 335 324 334 344 339 331 327 325 319 321 322 321 318 316 311 308 309 316 311 307 292 295 308 314 317 313 309 307 307
301 305 298 304 338 333 341 337 319 327 329 323 329 330 330 340 354 338 348 355 349 339 333 328 326 326 325 320 316 316 313 312 310 311 319 310 308 315 318 317 317 317 316 315 314
297 304 297 326 334 327 321 321 323 320 318 311 318 331 349 5 360 3 2 7 355 348 345 337 332 330 326 321 320 312 321 318 315 314 310 322 304 311 318 315 318 319 322 324 325
302 308 317 342 345 321 317 316 323 326 314 311 325 346 356 6 3 357 8 10 358 353 347 336 334 331 329 328 329 323 329 325 323 318 317 319 315 317 321 321 324 321 323 326 329
305 314 331 336 335 322 322 327 326 318 306 327 329 338 1 351 358 5 17 19 30 8 359 355 354 344 339 341 341 339 331 328 329 325 318 326 325 321 323 326 326 328 327 328 331
322 331 329 338 344 314 320 321 319 318 321 326 333 342 357 351 2 2 5 0 6 6 1 5 3 1 352 348 348 341 333 324 325 327 324 339 331 333 338 338 329 324 322 329 331
332 340 339 342 322 325 320 337 310 319 316 335 344 343 353 352 4 359 1 358 3 9 4 1 360 349 341 351 344 343 346 337 324 325 319 336 335 349 350 343 343 346 335 333 330
335 310 325 319 324 321 334 322 323 328 335 346 341 339 346 351 5 359 353 355 2 3 355 351 350 352 349 350 352 350 345 354 335 333 323 337 347 350 0 354 344 348 340 340 339
308 305 322 310 326 328 325 321 327 329 333 334 335 337 342 345 353 353 352 356 355 355 353 350 336 342 344 352 346 348 1 338 338 322 317 324 337 348 349 345 344 346 341 334 333
313 313 326 313 320 324 317 321 329 327 326 332 331 330 334 335 341 338 344 346 347 347 343 345 334 332 336 339 337 340 338 340 340 336 322 313 331 358 346 338 332 328 333 335 337
324 323 310 320 331 333 323 331 332 328 316 322 328 327 327 333 331 330 334 342 344 348 336 331 329 320 324 332 336 333 333 336 327 326 325 318 313 347 344 350 345 326 322 324 325
311 314 315 319 324 325 325 324 323 324 320 316 318 324 327 322 323 329 335 335 336 333 335 333 325 318 317 324 328 324 329 327 326 322 315 311 319 351 334 331 324 319 318 315 312
325 320 320 325 322 326 324 318 315 320 319 315 320 323 320 313 318 320 326 330 327 326 329 328 318 312 307 312 318 313 315 317 314 310 311 295 304 312 315 317 317 316 320 319 318
322 320 327 325 326 326 320 323 313 310 315 315 317 315 314 309 311 314 318 322 320 320 319 320 312 310 307 308 307 305 304 303 298 300 299 292 304 315 316 317 317 319 318 316 317
329 329 326 324 323 321 316 313 309 309 310 310 309 314 312 308 308 311 317 318 317 318 315 316 311 313 308 308 306 303 303 300 295 296 296 298 301 313 320 322 320 320 319 318 319
339 336 329 318 317 313 311 310 308 312 310 311 312 312 310 311 315 314 313 312 311 312 310 312 312 313 307 315 312 306 307 302 307 307 306 306 313 321 318 319 320 319 317 316 317